Date,TemperatureHighF,TemperatureAvgF,TemperatureLowF,DewpointHighF,DewpointAvgF,DewpointLowF,HumidityHigh,HumidityAvg,HumidityLow,PressureMaxIn,PressureMinIn,WindSpeedMaxMPH,WindSpeedAvgMPH,GustSpeedMaxMPH,PrecipitationSumIn
2013-1-1,37.6,33.7,23.4,23.8,18.7,7.5,60,54,49,29.47,29.33,5,2,6,0.00
2013-1-2,29.3,22.0,13.3,13.4,7.9,0.2,63,54,50,29.62,29.44,6,1,7,0.00
2013-1-3,28.4,20.1,9.3,12.8,7.1,-2.8,66,56,51,29.65,29.50,4,1,6,0.00
2013-1-4,34.3,25.1,17.8,21.7,14.3,8.7,72,63,57,29.53,29.47,4,1,5,0.00
2013-1-7,41.3,24.5,22.6,31.5,15.9,14.9,72,69,38,29.97,29.83,0,0,0,0.00
2013-1-8,47.1,32.5,20.7,30.5,22.5,14.0,80,67,51,29.89,29.80,6,1,10,0.03
2013-1-9,43.5,35.0,24.1,34.9,27.3,18.4,81,74,62,29.86,29.59,5,1,6,0.00
2013-1-10,46.2,37.4,29.1,30.7,23.3,17.8,72,57,45,30.04,29.65,5,1,6,0.00
2013-1-11,41.3,33.7,27.5,34.6,26.1,18.7,89,74,59,30.01,29.59,2,0,2,0.34
2013-1-12,45.9,41.3,37.4,43.5,39.2,34.2,95,92,88,29.68,29.56,2,0,2,0.06
2013-1-13,45.9,42.6,39.6,44.8,41.5,38.4,97,96,95,29.65,29.53,2,0,2,0.00
2013-1-14,56.7,45.9,34.2,54.6,42.1,28.0,98,87,65,29.80,29.42,4,1,5,0.07
2013-1-15,41.3,34.4,31.8,30.0,28.1,25.6,89,78,68,29.97,29.68,3,0,3,0.17
2013-1-16,33.8,32.3,30.4,31.3,29.1,25.4,93,88,71,29.71,29.30,3,0,3,0.00
2013-1-17,44.8,35.1,29.7,33.0,27.7,18.3,95,75,57,29.59,29.36,5,1,5,0.13
2013-1-18,29.7,23.7,17.4,18.3,8.9,3.9,62,53,46,29.95,29.50,5,1,6,0.00
2013-1-19,45.0,33.8,19.4,28.1,20.6,7.2,71,58,50,29.83,29.42,4,1,6,0.12
2013-1-20,50.4,40.5,27.1,31.1,23.9,7.1,67,52,38,29.50,29.18,8,3,10,0.00
2013-1-21,41.3,26.0,20.1,14.0,9.1,2.2,63,49,42,29.97,29.27,4,1,6,0.99
2013-1-22,22.3,17.8,10.2,11.3,0.5,-9.3,64,46,38,29.62,29.27,8,4,10,0.00
2013-1-23,41.3,11.7,5.9,31.5,-7.4,-11.8,44,39,38,29.97,29.56,6,2,9,0.99
2013-1-24,41.3,11.9,3.4,2.1,-6.5,-13.9,48,41,39,29.97,29.53,7,2,7,0.99
2013-1-25,41.3,16.0,6.1,31.5,-1.3,-11.3,57,45,38,29.97,29.50,4,1,5,0.99
2013-1-26,25.2,17.7,10.9,8.5,2.9,-3.7,58,52,45,29.77,29.47,5,1,8,0.00
2013-1-27,41.3,18.5,5.5,13.2,2.1,-9.2,59,48,41,29.97,29.77,4,1,5,0.99
2013-1-28,32.5,26.2,16.2,28.0,16.4,2.5,83,67,54,29.92,29.47,2,0,4,0.00
2013-1-29,38.5,35.0,32.5,34.1,31.0,28.0,89,85,81,29.65,29.44,2,0,2,0.16
2013-1-30,54.3,44.9,34.3,53.8,43.5,31.4,98,95,89,29.59,28.94,5,0,6,0.00
2013-1-31,58.3,44.0,27.5,57.7,32.0,9.0,98,65,41,29.21,28.59,9,4,16,0.98